Location: Helion Bumpstead
(52.0500°N, 0.4000°E)
Time: 21:33:44
(UTC+00:00)

Cosmos 2360 Rocket - Pass Details

Date: 15 November 2025
Orbit: 833 x 843 km, 71.0° (Epoch: 14 December)

Event Time Altitude Azimuth Distance (km) Brightness Sun altitude
Exits shadow 05:34:31 11° 328° (NNW) 2,397 4.2 -15.8°
Maximum altitude 05:36:12 12° 346° (NNW) 2,305 4.2 -15.6°
Drops below altitude 10° 05:38:30 10° 10° (N) 2,472 4.6 -15.2°
Sets 05:42:41 0° 40° (NE) 3,406 5.8 -14.6°
